LNI84 WIMM-OEMA

Flight info

Callsign LNI84
Flight time N/A
Altitude 36000
Route MAIMU DCT MEMAK N563 AKMIL/N0474F380 N563 REXOD L883 UMILA N569 SUTLI/N0467F400 N569 TOKRA DCT ITRUX Y511 ELONU
Aircraft A333/H-SDE3GHIJ2J3J5M1RVWXY/LB2D1

Departure

Time 2026-04-29 06:48
Airport Kualanamu International Airport (WIMM)

Arrival

Time N/A
Airport Prince Mohammad Bin Abdulaziz Airport (OEMA)
Time Latitude Longitude Altitude Speed Heading
2026-04-29 06:30 3.63490 98.88254 44 ft 0 kts 225°
2026-04-29 06:32 3.63494 98.88258 44 ft 2 kts 224°
2026-04-29 06:33 3.63508 98.88271 42 ft 3 kts 219°
2026-04-29 06:33 3.63524 98.88284 43 ft 3 kts 222°
2026-04-29 06:33 3.63537 98.88297 41 ft 3 kts 256°
2026-04-29 06:33 3.63539 98.88304 41 ft 1 kts 316°
2026-04-29 06:34 3.63538 98.88305 41 ft 1 kts 317°
2026-04-29 06:35 3.63538 98.88304 41 ft 0 kts 317°
2026-04-29 06:35 3.63550 98.88293 42 ft 5 kts 317°
2026-04-29 06:36 3.63588 98.88258 44 ft 10 kts 317°
2026-04-29 06:36 3.63643 98.88203 44 ft 11 kts 315°
2026-04-29 06:36 3.63698 98.88148 44 ft 11 kts 315°
2026-04-29 06:36 3.63752 98.88093 44 ft 11 kts 315°
2026-04-29 06:37 3.63806 98.88038 44 ft 11 kts 315°
2026-04-29 06:37 3.63861 98.87984 44 ft 11 kts 315°
2026-04-29 06:37 3.63920 98.87971 44 ft 8 kts 19°
2026-04-29 06:37 3.63963 98.88003 44 ft 8 kts 41°
2026-04-29 06:38 3.64005 98.88043 44 ft 9 kts 44°
2026-04-29 06:38 3.64051 98.88089 44 ft 10 kts 45°
2026-04-29 06:38 3.64106 98.88132 44 ft 10 kts 17°
2026-04-29 06:38 3.64167 98.88110 44 ft 10 kts 320°
2026-04-29 06:39 3.64217 98.88063 44 ft 10 kts 315°
2026-04-29 06:39 3.64271 98.88011 43 ft 11 kts 315°
2026-04-29 06:39 3.64285 98.87943 43 ft 10 kts 245°
2026-04-29 06:39 3.64239 98.87889 43 ft 11 kts 226°
2026-04-29 06:40 3.64183 98.87832 43 ft 12 kts 224°
2026-04-29 06:40 3.64118 98.87769 43 ft 14 kts 224°
2026-04-29 06:40 3.64047 98.87699 43 ft 15 kts 224°
2026-04-29 06:40 3.63972 98.87623 43 ft 16 kts 225°
2026-04-29 06:41 3.63891 98.87543 43 ft 17 kts 225°
2026-04-29 06:41 3.63806 98.87459 43 ft 18 kts 225°
2026-04-29 06:41 3.63718 98.87372 43 ft 18 kts 225°
2026-04-29 06:41 3.63634 98.87287 43 ft 16 kts 227°
2026-04-29 06:42 3.63630 98.87192 43 ft 13 kts 272°
2026-04-29 06:42 3.63593 98.87121 43 ft 11 kts 228°
2026-04-29 06:42 3.63540 98.87066 43 ft 11 kts 225°
2026-04-29 06:42 3.63481 98.87009 43 ft 12 kts 224°
2026-04-29 06:43 3.63418 98.86947 42 ft 13 kts 225°
2026-04-29 06:43 3.63351 98.86880 42 ft 14 kts 225°
2026-04-29 06:43 3.63282 98.86811 42 ft 14 kts 225°
2026-04-29 06:43 3.63208 98.86738 42 ft 15 kts 225°
2026-04-29 06:44 3.63132 98.86662 42 ft 16 kts 225°
2026-04-29 06:44 3.63054 98.86585 43 ft 16 kts 225°
2026-04-29 06:44 3.62975 98.86506 43 ft 16 kts 225°
2026-04-29 06:44 3.62894 98.86425 43 ft 17 kts 225°
2026-04-29 06:45 3.62813 98.86344 43 ft 17 kts 225°
2026-04-29 06:45 3.62730 98.86262 43 ft 17 kts 225°
2026-04-29 06:45 3.62645 98.86177 43 ft 17 kts 225°
2026-04-29 06:45 3.62559 98.86092 43 ft 17 kts 224°
2026-04-29 06:46 3.62507 98.85994 42 ft 16 kts 274°
2026-04-29 06:46 3.62574 98.85907 39 ft 15 kts 337°
2026-04-29 06:46 3.62651 98.85932 41 ft 10 kts 40°
2026-04-29 06:46 3.62681 98.85960 41 ft 0 kts 44°
2026-04-29 06:47 3.62710 98.85988 40 ft 22 kts 44°
2026-04-29 06:47 3.62968 98.86245 41 ft 82 kts 45°
2026-04-29 06:47 3.63509 98.86783 40 ft 136 kts 45°
2026-04-29 06:47 3.64300 98.87568 39 ft 183 kts 43°
2026-04-29 06:48 3.65279 98.88492 525 ft 196 kts 42°
2026-04-29 06:48 3.66260 98.89434 1350 ft 193 kts 45°
2026-04-29 06:48 3.67318 98.90228 1955 ft 198 kts 20°
2026-04-29 06:48 3.68738 98.90167 2140 ft 221 kts 336°
2026-04-29 06:49 3.69887 98.89080 2303 ft 243 kts 297°
2026-04-29 06:49 3.70531 98.87448 2583 ft 259 kts 291°
2026-04-29 06:49 3.71264 98.85775 3069 ft 265 kts 297°
2026-04-29 06:49 3.72173 98.84156 3619 ft 268 kts 302°
2026-04-29 06:50 3.73201 98.82590 4180 ft 271 kts 305°
2026-04-29 06:50 3.74303 98.81053 4794 ft 273 kts 307°
2026-04-29 06:50 3.75448 98.79527 5375 ft 275 kts 308°
2026-04-29 06:50 3.76622 98.78001 5972 ft 278 kts 309°
2026-04-29 06:51 3.77818 98.76465 6545 ft 281 kts 309°
2026-04-29 06:51 3.79030 98.74921 7110 ft 284 kts 309°
2026-04-29 06:51 3.80257 98.73362 7695 ft 287 kts 309°
2026-04-29 06:51 3.81492 98.71780 8275 ft 290 kts 306°
2026-04-29 06:52 3.82448 98.69984 8871 ft 295 kts 294°
2026-04-29 06:52 3.83212 98.68068 9474 ft 299 kts 292°
2026-04-29 06:52 3.83954 98.66112 10025 ft 302 kts 292°
2026-04-29 06:52 3.84715 98.64111 10376 ft 314 kts 292°
2026-04-29 06:53 3.85517 98.62017 10600 ft 330 kts 292°
2026-04-29 06:53 3.86361 98.59826 10832 ft 344 kts 292°
2026-04-29 06:53 3.87243 98.57542 11039 ft 359 kts 292°
2026-04-29 06:53 3.88157 98.55178 11328 ft 369 kts 292°
2026-04-29 06:54 3.89092 98.52759 11775 ft 374 kts 292°
2026-04-29 06:54 3.90036 98.50319 12276 ft 378 kts 292°
2026-04-29 06:54 3.90991 98.47853 12788 ft 381 kts 291°
2026-04-29 06:54 3.91948 98.45378 13294 ft 384 kts 291°
2026-04-29 06:55 3.92916 98.42877 13807 ft 387 kts 291°
2026-04-29 06:55 3.93894 98.40351 14232 ft 390 kts 291°
2026-04-29 06:55 3.94877 98.37811 14671 ft 393 kts 291°
2026-04-29 06:55 3.95869 98.35247 15109 ft 396 kts 291°
2026-04-29 06:56 3.96868 98.32665 15532 ft 400 kts 291°
2026-04-29 06:56 3.97878 98.30054 15946 ft 403 kts 291°
2026-04-29 06:56 3.98550 98.28317 16240 ft 405 kts 291°
2026-04-29 06:56 3.99571 98.25683 16659 ft 408 kts 291°
2026-04-29 06:57 4.00600 98.23024 17077 ft 411 kts 291°
2026-04-29 06:57 4.01636 98.20349 17493 ft 414 kts 291°
2026-04-29 06:57 4.02681 98.17649 17897 ft 417 kts 291°
2026-04-29 06:57 4.03730 98.14939 18293 ft 419 kts 291°
2026-04-29 06:58 4.04789 98.12203 18627 ft 422 kts 291°
2026-04-29 06:58 4.05853 98.09455 18962 ft 425 kts 291°
2026-04-29 06:58 4.06923 98.06689 19296 ft 427 kts 291°
2026-04-29 06:58 4.08000 98.03906 19636 ft 430 kts 291°
2026-04-29 06:59 4.09081 98.01112 19959 ft 432 kts 291°
2026-04-29 06:59 4.10170 97.98297 20280 ft 434 kts 291°
2026-04-29 06:59 4.11266 97.95468 20587 ft 437 kts 291°
2026-04-29 06:59 4.12370 97.92619 20868 ft 440 kts 291°
2026-04-29 07:00 4.13482 97.89750 21196 ft 443 kts 291°
2026-04-29 07:00 4.14597 97.86873 21544 ft 445 kts 291°
2026-04-29 07:00 4.15720 97.83975 21839 ft 447 kts 291°
2026-04-29 07:00 4.16846 97.81068 22162 ft 449 kts 291°
2026-04-29 07:01 4.17979 97.78144 22449 ft 452 kts 291°
2026-04-29 07:01 4.19120 97.75201 22766 ft 453 kts 291°
2026-04-29 07:01 4.20262 97.72254 23078 ft 456 kts 291°
2026-04-29 07:01 4.21412 97.69288 23393 ft 458 kts 291°
2026-04-29 07:02 4.22566 97.66309 23662 ft 460 kts 291°
2026-04-29 07:02 4.23728 97.63311 23907 ft 462 kts 291°
2026-04-29 07:02 4.24890 97.60314 24176 ft 463 kts 291°
2026-04-29 07:02 4.26056 97.57302 24457 ft 464 kts 292°
2026-04-29 07:03 4.27226 97.54283 24737 ft 465 kts 292°
2026-04-29 07:03 4.28399 97.51256 24986 ft 467 kts 292°
2026-04-29 07:03 4.29576 97.48217 25240 ft 468 kts 292°
2026-04-29 07:03 4.30757 97.45169 25509 ft 470 kts 292°
2026-04-29 07:04 4.31940 97.42112 25770 ft 472 kts 292°
2026-04-29 07:04 4.33127 97.39048 26034 ft 473 kts 292°
2026-04-29 07:04 4.34317 97.35972 26273 ft 474 kts 292°
2026-04-29 07:04 4.35513 97.32882 26521 ft 476 kts 292°
2026-04-29 07:05 4.36711 97.29784 26775 ft 477 kts 292°
2026-04-29 07:05 4.37913 97.26677 27008 ft 479 kts 292°
2026-04-29 07:05 4.39111 97.23557 27257 ft 480 kts 290°
2026-04-29 07:05 4.40054 97.20340 27498 ft 483 kts 282°
2026-04-29 07:06 4.40439 97.16998 27736 ft 485 kts 271°
2026-04-29 07:06 4.40249 97.13626 27961 ft 486 kts 264°
2026-04-29 07:06 4.39843 97.10253 28208 ft 488 kts 262°
2026-04-29 07:06 4.39403 97.06880 28448 ft 489 kts 262°
2026-04-29 07:07 4.38963 97.03493 28676 ft 491 kts 262°
2026-04-29 07:07 4.38527 97.00095 28925 ft 492 kts 262°
2026-04-29 07:07 4.38093 96.96689 29145 ft 494 kts 263°
2026-04-29 07:07 4.37660 96.93267 29365 ft 496 kts 263°
2026-04-29 07:08 4.37226 96.89836 29589 ft 497 kts 263°
2026-04-29 07:08 4.36792 96.86400 29797 ft 499 kts 263°
2026-04-29 07:08 4.36356 96.82942 29964 ft 501 kts 263°
2026-04-29 07:08 4.35923 96.79475 30096 ft 503 kts 263°
2026-04-29 07:09 4.35726 96.75969 30264 ft 505 kts 272°
2026-04-29 07:09 4.36094 96.72475 30413 ft 506 kts 282°
2026-04-29 07:09 4.37084 96.69090 30554 ft 506 kts 292°
2026-04-29 07:09 4.38420 96.65829 30748 ft 506 kts 294°
2026-04-29 07:10 4.39859 96.62605 30996 ft 505 kts 295°
2026-04-29 07:10 4.41336 96.59420 31275 ft 504 kts 296°
2026-04-29 07:10 4.42825 96.56244 31490 ft 504 kts 296°
2026-04-29 07:10 4.44311 96.53061 31671 ft 504 kts 296°
2026-04-29 07:11 4.45786 96.49877 31915 ft 504 kts 296°
2026-04-29 07:11 4.47253 96.46684 32167 ft 503 kts 295°
2026-04-29 07:11 4.48708 96.43501 32450 ft 502 kts 295°
2026-04-29 07:11 4.50152 96.40329 32690 ft 501 kts 295°
2026-04-29 07:12 4.51598 96.37149 32878 ft 501 kts 295°
2026-04-29 07:12 4.53042 96.33969 33068 ft 501 kts 295°
2026-04-29 07:12 4.54487 96.30789 33284 ft 501 kts 295°
2026-04-29 07:12 4.55929 96.27614 33523 ft 501 kts 295°
2026-04-29 07:13 4.57374 96.24436 33736 ft 500 kts 295°
2026-04-29 07:13 4.58814 96.21268 33931 ft 500 kts 295°
2026-04-29 07:13 4.60253 96.18100 34113 ft 500 kts 295°
2026-04-29 07:13 4.61692 96.14934 34295 ft 499 kts 295°
2026-04-29 07:14 4.63131 96.11767 34479 ft 499 kts 295°
2026-04-29 07:14 4.64567 96.08607 34641 ft 498 kts 295°
2026-04-29 07:14 4.66006 96.05440 34824 ft 498 kts 295°
2026-04-29 07:14 4.67441 96.02281 34968 ft 498 kts 295°
2026-04-29 07:15 4.68876 95.99121 35157 ft 498 kts 295°
2026-04-29 07:15 4.70311 95.95962 35349 ft 497 kts 295°
2026-04-29 07:15 4.71742 95.92808 35513 ft 497 kts 295°
2026-04-29 07:15 4.73171 95.89661 35676 ft 497 kts 295°
2026-04-29 07:16 4.74602 95.86509 35852 ft 496 kts 295°
2026-04-29 07:16 4.77462 95.80209 35961 ft 496 kts 295°
2026-04-29 07:17 4.80317 95.73915 35947 ft 496 kts 295°
2026-04-29 07:17 4.83170 95.67625 35947 ft 496 kts 296°
2026-04-29 07:18 4.86021 95.61337 35955 ft 496 kts 296°
2026-04-29 07:18 4.88873 95.55045 35954 ft 496 kts 296°
2026-04-29 07:19 4.91725 95.48751 35957 ft 496 kts 296°
2026-04-29 07:19 4.94578 95.42453 35941 ft 495 kts 295°
2026-04-29 07:20 4.97422 95.36174 35941 ft 495 kts 295°
2026-04-29 07:20 5.00266 95.29893 35931 ft 494 kts 296°
2026-04-29 07:21 5.03103 95.23625 35939 ft 493 kts 296°
2026-04-29 07:21 5.05938 95.17360 35927 ft 493 kts 296°
2026-04-29 07:22 5.08771 95.11099 35928 ft 493 kts 296°
2026-04-29 07:22 5.11604 95.04834 35928 ft 493 kts 296°
2026-04-29 07:23 5.14433 94.98575 35925 ft 493 kts 296°
2026-04-29 07:23 5.17266 94.92308 35928 ft 492 kts 296°
2026-04-29 07:24 5.20086 94.86066 35927 ft 491 kts 296°
2026-04-29 07:24 5.22904 94.79826 35928 ft 491 kts 296°
2026-04-29 07:25 5.25721 94.73587 35928 ft 491 kts 296°
2026-04-29 07:25 5.28537 94.67349 35927 ft 491 kts 296°
2026-04-29 07:26 5.31352 94.61111 35927 ft 491 kts 296°
2026-04-29 07:26 5.34167 94.54872 35930 ft 491 kts 295°
2026-04-29 07:27 5.36982 94.48630 35931 ft 491 kts 295°
2026-04-29 07:27 5.39794 94.42392 35930 ft 491 kts 295°
2026-04-29 07:28 5.42607 94.36149 35930 ft 491 kts 295°
2026-04-29 07:28 5.45418 94.29910 35930 ft 491 kts 295°
2026-04-29 07:29 5.48230 94.23667 35930 ft 491 kts 295°
2026-04-29 07:29 5.51039 94.17429 35931 ft 491 kts 295°
2026-04-29 07:30 5.53848 94.11187 35926 ft 491 kts 295°
2026-04-29 07:30 5.56638 94.04987 35928 ft 491 kts 295°
2026-04-29 07:31 5.60869 93.95580 35925 ft 491 kts 295°
2026-04-29 07:31 5.63675 93.89337 35925 ft 491 kts 295°
2026-04-29 07:32 5.66483 93.83089 35925 ft 491 kts 295°
2026-04-29 07:32 5.69289 93.76844 35924 ft 491 kts 295°
2026-04-29 07:33 5.72098 93.70591 35925 ft 491 kts 295°
2026-04-29 07:33 5.74906 93.64337 35925 ft 491 kts 295°
2026-04-29 07:34 5.77709 93.58090 35925 ft 491 kts 295°
2026-04-29 07:34 5.80514 93.51838 35925 ft 491 kts 295°
2026-04-29 07:35 5.83317 93.45589 35925 ft 491 kts 295°
2026-04-29 07:35 5.86120 93.39338 35925 ft 491 kts 295°
2026-04-29 07:36 5.88923 93.33084 35925 ft 491 kts 294°
2026-04-29 07:36 5.91253 93.27884 35925 ft 491 kts 294°
2026-04-29 07:37 5.94052 93.21635 35925 ft 491 kts 294°
2026-04-29 07:37 5.96851 93.15383 35925 ft 491 kts 294°
2026-04-29 07:38 5.99651 93.09128 35925 ft 491 kts 295°
2026-04-29 07:38 6.02479 93.02883 35924 ft 491 kts 295°
2026-04-29 07:39 6.05330 92.96644 35924 ft 491 kts 295°
2026-04-29 07:39 6.08180 92.90406 35921 ft 490 kts 295°
2026-04-29 07:40 6.11005 92.84210 35921 ft 486 kts 295°
2026-04-29 07:40 6.13815 92.78042 35922 ft 486 kts 295°
2026-04-29 07:41 6.16626 92.71868 35922 ft 486 kts 295°
2026-04-29 07:41 6.19436 92.65693 35923 ft 486 kts 295°
2026-04-29 07:42 6.22248 92.59514 35922 ft 486 kts 295°
2026-04-29 07:42 6.25061 92.53329 35922 ft 487 kts 295°
2026-04-29 07:43 6.27873 92.47146 35922 ft 487 kts 295°
2026-04-29 07:43 6.30684 92.40961 35919 ft 487 kts 295°
2026-04-29 07:44 6.33496 92.34772 35919 ft 487 kts 295°
2026-04-29 07:44 6.36305 92.28587 35921 ft 487 kts 294°
2026-04-29 07:45 6.39138 92.22348 35919 ft 488 kts 294°
2026-04-29 07:45 6.41934 92.16186 35920 ft 488 kts 294°
2026-04-29 07:46 6.44751 92.09978 35921 ft 488 kts 294°
2026-04-29 07:46 6.47565 92.03772 35918 ft 487 kts 294°
2026-04-29 07:47 6.50368 91.97590 35921 ft 486 kts 294°
2026-04-29 07:47 6.53169 91.91409 35915 ft 485 kts 294°
2026-04-29 07:48 6.55970 91.85225 35916 ft 487 kts 294°
2026-04-29 07:48 6.58780 91.79019 35921 ft 488 kts 294°
2026-04-29 07:49 6.61589 91.72813 35919 ft 488 kts 294°
2026-04-29 07:49 6.64398 91.66607 35919 ft 488 kts 294°
2026-04-29 07:50 6.67207 91.60396 35919 ft 487 kts 294°
2026-04-29 07:50 6.70011 91.54193 35918 ft 487 kts 294°
2026-04-29 07:51 6.72820 91.47978 35921 ft 489 kts 294°
2026-04-29 07:51 6.75634 91.41749 35919 ft 489 kts 294°
2026-04-29 07:52 6.78450 91.35514 35916 ft 489 kts 294°
2026-04-29 07:52 6.81264 91.29279 35918 ft 489 kts 294°
2026-04-29 07:53 6.84076 91.23047 35918 ft 489 kts 294°
2026-04-29 07:53 6.86885 91.16820 35918 ft 488 kts 294°
2026-04-29 07:54 6.89685 91.10609 35917 ft 488 kts 294°
2026-04-29 07:54 6.92488 91.04389 35917 ft 488 kts 294°
2026-04-29 07:55 6.95291 90.98166 35917 ft 488 kts 294°
2026-04-29 07:55 6.98097 90.91935 35917 ft 488 kts 294°
2026-04-29 07:56 7.00899 90.85712 35916 ft 488 kts 294°
2026-04-29 07:56 7.03701 90.79483 35915 ft 488 kts 294°
2026-04-29 07:57 7.06502 90.73256 35913 ft 488 kts 294°
2026-04-29 07:57 7.09298 90.67037 35914 ft 488 kts 294°
2026-04-29 07:58 7.12095 90.60813 35911 ft 488 kts 294°
2026-04-29 07:58 7.14890 90.54591 35914 ft 488 kts 294°
2026-04-29 07:59 7.17684 90.48366 35914 ft 488 kts 294°
2026-04-29 07:59 7.20479 90.42140 35911 ft 488 kts 294°
2026-04-29 08:00 7.23268 90.35924 35912 ft 486 kts 294°
2026-04-29 08:00 7.26037 90.29748 35911 ft 482 kts 294°
2026-04-29 08:01 7.28794 90.23597 35906 ft 481 kts 294°
2026-04-29 08:01 7.31548 90.17449 35908 ft 481 kts 294°
2026-04-29 08:02 7.34301 90.11303 35908 ft 481 kts 294°
2026-04-29 08:02 7.37054 90.05153 35909 ft 481 kts 294°
2026-04-29 08:03 7.39806 89.99003 35906 ft 481 kts 294°
2026-04-29 08:03 7.42549 89.92871 35905 ft 479 kts 293°
2026-04-29 08:04 7.45277 89.86771 35906 ft 478 kts 293°
2026-04-29 08:04 7.48005 89.80664 35906 ft 478 kts 293°
2026-04-29 08:05 7.50732 89.74559 35905 ft 478 kts 293°
2026-04-29 08:05 7.53459 89.68454 35905 ft 478 kts 293°
2026-04-29 08:06 7.56185 89.62345 35903 ft 478 kts 293°
2026-04-29 08:06 7.58910 89.56237 35903 ft 478 kts 293°
2026-04-29 08:07 7.61631 89.50135 35901 ft 477 kts 293°
2026-04-29 08:07 7.64344 89.44049 35903 ft 475 kts 293°
2026-04-29 08:08 7.67053 89.37968 35904 ft 475 kts 293°
2026-04-29 08:08 7.69765 89.31892 35903 ft 475 kts 293°
2026-04-29 08:09 7.72504 89.25869 35900 ft 475 kts 294°
2026-04-29 08:09 7.75293 89.19779 35900 ft 475 kts 294°
2026-04-29 08:10 7.78057 89.13737 35900 ft 475 kts 294°
2026-04-29 08:10 7.80818 89.07687 35900 ft 475 kts 294°
2026-04-29 08:11 7.83575 89.01640 35900 ft 475 kts 294°
2026-04-29 08:11 7.86333 88.95587 35900 ft 475 kts 294°
2026-04-29 08:12 7.89088 88.89540 35897 ft 475 kts 294°
2026-04-29 08:12 7.91844 88.83486 35898 ft 474 kts 294°
2026-04-29 08:13 7.94591 88.77452 35894 ft 473 kts 294°
2026-04-29 08:13 7.97333 88.71424 35895 ft 472 kts 294°
2026-04-29 08:14 8.00070 88.65405 35895 ft 472 kts 294°
2026-04-29 08:14 8.02810 88.59376 35897 ft 472 kts 294°
2026-04-29 08:15 8.05547 88.53352 35895 ft 472 kts 294°
2026-04-29 08:15 8.08284 88.47324 35895 ft 472 kts 294°
2026-04-29 08:16 8.11017 88.41302 35892 ft 472 kts 294°
2026-04-29 08:16 8.13747 88.35286 35892 ft 472 kts 294°
2026-04-29 08:17 8.16477 88.29266 35889 ft 472 kts 294°
2026-04-29 08:17 8.18746 88.24259 35889 ft 472 kts 294°
2026-04-29 08:18 8.21934 88.17223 35889 ft 472 kts 294°
2026-04-29 08:18 8.24201 88.12215 35889 ft 472 kts 294°
2026-04-29 08:19 8.26927 88.06195 35886 ft 471 kts 294°
2026-04-29 08:19 8.29650 88.00176 35886 ft 471 kts 294°
2026-04-29 08:20 8.32373 87.94156 35886 ft 471 kts 294°
2026-04-29 08:20 8.35092 87.88139 35887 ft 470 kts 294°
2026-04-29 08:21 8.37801 87.82143 35883 ft 468 kts 294°
2026-04-29 08:21 8.40501 87.76164 35884 ft 468 kts 294°
2026-04-29 08:22 8.43203 87.70178 35886 ft 468 kts 294°
2026-04-29 08:22 8.45901 87.64199 35883 ft 467 kts 293°
2026-04-29 08:23 8.48594 87.58227 35881 ft 467 kts 293°
2026-04-29 08:23 8.51283 87.52260 35881 ft 467 kts 293°
2026-04-29 08:24 8.53974 87.46288 35878 ft 467 kts 293°
2026-04-29 08:24 8.56663 87.40316 35878 ft 467 kts 293°
2026-04-29 08:25 8.59352 87.34342 35875 ft 467 kts 293°
2026-04-29 08:25 8.62036 87.28376 35875 ft 466 kts 293°
2026-04-29 08:26 8.64714 87.22421 35875 ft 465 kts 293°
2026-04-29 08:26 8.67386 87.16474 35875 ft 465 kts 293°
2026-04-29 08:27 8.70061 87.10518 35873 ft 465 kts 293°
2026-04-29 08:27 8.72731 87.04572 35872 ft 463 kts 294°
2026-04-29 08:28 8.75387 86.98655 35872 ft 462 kts 294°
2026-04-29 08:28 8.78040 86.92739 35870 ft 462 kts 294°
2026-04-29 08:29 8.80690 86.86830 35870 ft 461 kts 294°
2026-04-29 08:29 8.83336 86.80925 35870 ft 461 kts 294°
2026-04-29 08:30 8.87302 86.72068 35870 ft 461 kts 294°
2026-04-29 08:31 8.89947 86.66160 35870 ft 461 kts 294°
2026-04-29 08:31 8.92589 86.60253 35864 ft 461 kts 294°
2026-04-29 08:32 8.95232 86.54341 35863 ft 461 kts 294°
2026-04-29 08:32 8.97873 86.48432 35864 ft 461 kts 294°
2026-04-29 08:33 9.00514 86.42519 35862 ft 461 kts 294°
2026-04-29 08:33 9.03155 86.36605 35862 ft 461 kts 294°
2026-04-29 08:34 9.05794 86.30689 35863 ft 461 kts 294°
2026-04-29 08:34 9.08432 86.24776 35862 ft 461 kts 294°
2026-04-29 08:35 9.11070 86.18857 35860 ft 461 kts 294°
2026-04-29 08:35 9.13706 86.12941 35846 ft 462 kts 294°
2026-04-29 08:36 9.16349 86.07004 35844 ft 463 kts 294°
2026-04-29 08:36 9.18991 86.01070 35845 ft 462 kts 294°
2026-04-29 08:37 9.21629 85.95139 35842 ft 462 kts 294°
2026-04-29 08:37 9.24269 85.89202 35842 ft 463 kts 294°
2026-04-29 08:38 9.26951 85.83279 35844 ft 463 kts 294°
2026-04-29 08:38 9.29691 85.77390 35843 ft 463 kts 295°
2026-04-29 08:39 9.32437 85.71500 35842 ft 462 kts 294°
2026-04-29 08:39 9.35174 85.65608 35843 ft 463 kts 294°
2026-04-29 08:40 9.37907 85.59710 35843 ft 463 kts 294°
2026-04-29 08:40 9.40638 85.53810 35842 ft 463 kts 294°
2026-04-29 08:41 9.43372 85.47904 35847 ft 463 kts 294°
2026-04-29 08:41 9.46098 85.42011 35840 ft 462 kts 294°
2026-04-29 08:42 9.48818 85.36125 35842 ft 462 kts 294°
2026-04-29 08:42 9.51545 85.30225 35843 ft 463 kts 294°
2026-04-29 08:43 9.54268 85.24328 35841 ft 462 kts 294°
2026-04-29 08:43 9.56984 85.18446 35839 ft 461 kts 294°
2026-04-29 08:44 9.59699 85.12561 35841 ft 461 kts 294°
2026-04-29 08:44 9.62415 85.06669 35839 ft 462 kts 294°
2026-04-29 08:45 9.65136 85.00767 35839 ft 461 kts 294°
2026-04-29 08:45 9.67846 84.94883 35841 ft 460 kts 294°
2026-04-29 08:46 9.70551 84.89009 35840 ft 460 kts 294°
2026-04-29 08:46 9.73256 84.83128 35839 ft 460 kts 294°
2026-04-29 08:47 9.75965 84.77239 35841 ft 461 kts 294°
2026-04-29 08:47 9.78672 84.71350 35839 ft 461 kts 294°
2026-04-29 08:48 9.81373 84.65471 35835 ft 458 kts 294°
2026-04-29 08:48 9.84061 84.59618 35837 ft 458 kts 294°
2026-04-29 08:49 9.86751 84.53754 35840 ft 459 kts 294°
2026-04-29 08:49 9.89440 84.47891 35837 ft 459 kts 294°
2026-04-29 08:50 9.92130 84.42024 35837 ft 459 kts 294°
2026-04-29 08:50 9.94818 84.36157 35837 ft 459 kts 294°
2026-04-29 08:51 9.97506 84.30287 35837 ft 459 kts 294°
2026-04-29 08:51 10.00192 84.24418 35837 ft 459 kts 294°
2026-04-29 08:52 10.02883 84.18537 35835 ft 459 kts 294°
2026-04-29 08:52 10.05571 84.12656 35835 ft 459 kts 294°
2026-04-29 08:53 10.08253 84.06787 35833 ft 459 kts 294°
2026-04-29 08:53 10.10939 84.00905 35831 ft 459 kts 294°
2026-04-29 08:54 10.13624 83.95022 35831 ft 460 kts 294°
2026-04-29 08:54 10.16309 83.89136 35831 ft 459 kts 294°
2026-04-29 08:55 10.18986 83.83264 35833 ft 458 kts 294°
2026-04-29 08:55 10.21664 83.77387 35833 ft 459 kts 294°
2026-04-29 08:56 10.24342 83.71505 35829 ft 460 kts 294°
2026-04-29 08:56 10.27025 83.65611 35829 ft 459 kts 294°
2026-04-29 08:57 10.29703 83.59726 35828 ft 459 kts 294°
2026-04-29 08:57 10.32376 83.53844 35827 ft 458 kts 294°
2026-04-29 08:58 10.34598 83.48954 35829 ft 459 kts 294°
2026-04-29 08:58 10.37730 83.42057 35829 ft 461 kts 294°
2026-04-29 08:59 10.39961 83.37142 35827 ft 460 kts 294°
2026-04-29 08:59 10.42637 83.31244 35829 ft 459 kts 293°
2026-04-29 09:00 10.45307 83.25355 35830 ft 459 kts 294°
2026-04-29 09:00 10.47980 83.19453 35832 ft 460 kts 294°
2026-04-29 09:01 10.50658 83.13540 35839 ft 460 kts 294°
2026-04-29 09:01 10.53310 83.07679 35828 ft 453 kts 294°
2026-04-29 09:02 10.55936 83.01874 35829 ft 452 kts 294°
2026-04-29 09:02 10.58562 82.96064 35826 ft 452 kts 294°
2026-04-29 09:03 10.61187 82.90255 35826 ft 452 kts 294°
2026-04-29 09:03 10.63811 82.84448 35826 ft 452 kts 294°
2026-04-29 09:04 10.66444 82.78642 35826 ft 452 kts 294°
2026-04-29 09:04 10.69083 82.72827 35826 ft 453 kts 294°
2026-04-29 09:05 10.71721 82.67010 35823 ft 453 kts 294°
2026-04-29 09:05 10.74357 82.61194 35823 ft 453 kts 294°
2026-04-29 09:06 10.76994 82.55370 35823 ft 453 kts 294°
2026-04-29 09:06 10.79611 82.49587 35824 ft 453 kts 294°
2026-04-29 09:07 10.82261 82.43730 35823 ft 453 kts 294°
2026-04-29 09:07 10.84896 82.37899 35825 ft 454 kts 294°
2026-04-29 09:08 10.87519 82.32091 35823 ft 455 kts 294°
2026-04-29 09:08 10.90176 82.26209 35823 ft 455 kts 294°
2026-04-29 09:09 10.92797 82.20400 35818 ft 454 kts 294°
2026-04-29 09:09 10.95431 82.14558 35818 ft 454 kts 294°
2026-04-29 09:10 10.98069 82.08707 35820 ft 454 kts 294°
2026-04-29 09:10 11.00700 82.02864 35821 ft 454 kts 294°
2026-04-29 09:11 11.03333 81.97016 35822 ft 454 kts 294°
2026-04-29 09:11 11.05966 81.91162 35820 ft 454 kts 294°
2026-04-29 09:12 11.08594 81.85317 35820 ft 454 kts 294°
2026-04-29 09:12 11.11224 81.79462 35818 ft 454 kts 294°
2026-04-29 09:13 11.13851 81.73614 35815 ft 454 kts 294°
2026-04-29 09:13 11.16476 81.67763 35815 ft 454 kts 294°
2026-04-29 09:14 11.19098 81.61917 35815 ft 453 kts 294°
2026-04-29 09:14 11.21717 81.56077 35815 ft 454 kts 293°
2026-04-29 09:15 11.24343 81.50212 35813 ft 455 kts 293°
2026-04-29 09:15 11.26970 81.44344 35812 ft 455 kts 293°
2026-04-29 09:16 11.29598 81.38470 35813 ft 455 kts 293°
2026-04-29 09:16 11.32222 81.32600 35812 ft 455 kts 293°
2026-04-29 09:17 11.34848 81.26725 35808 ft 456 kts 293°
2026-04-29 09:17 11.37477 81.20836 35813 ft 458 kts 293°
2026-04-29 09:18 11.40113 81.14930 35810 ft 458 kts 293°
2026-04-29 09:18 11.42748 81.09021 35809 ft 458 kts 293°
2026-04-29 09:19 11.45381 81.03114 35808 ft 458 kts 293°
2026-04-29 09:19 11.48012 80.97208 35807 ft 458 kts 293°
2026-04-29 09:20 11.50642 80.91298 35806 ft 458 kts 293°
2026-04-29 09:20 11.53270 80.85391 35807 ft 457 kts 293°
2026-04-29 09:21 11.55896 80.79483 35806 ft 457 kts 293°
2026-04-29 09:21 11.58521 80.73576 35801 ft 457 kts 293°
2026-04-29 09:22 11.61145 80.67667 35800 ft 457 kts 293°
2026-04-29 09:22 11.63766 80.61760 35799 ft 457 kts 293°
2026-04-29 09:23 11.66386 80.55851 35798 ft 457 kts 293°
2026-04-29 09:23 11.69005 80.49940 35799 ft 457 kts 293°
2026-04-29 09:24 11.71618 80.44039 35793 ft 456 kts 293°
2026-04-29 09:24 11.74228 80.38142 35793 ft 456 kts 293°
2026-04-29 09:25 11.76835 80.32246 35792 ft 456 kts 293°
2026-04-29 09:25 11.79446 80.26339 35786 ft 457 kts 293°
2026-04-29 09:26 11.82055 80.20432 35784 ft 456 kts 293°
2026-04-29 09:26 11.84659 80.14534 35781 ft 456 kts 293°
2026-04-29 09:27 11.87258 80.08625 35785 ft 456 kts 292°
2026-04-29 09:27 11.89830 80.02728 35779 ft 453 kts 292°
2026-04-29 09:28 11.92366 79.96906 35785 ft 451 kts 292°
2026-04-29 09:28 11.94919 79.91043 35785 ft 452 kts 292°
2026-04-29 09:29 11.97488 79.85144 35774 ft 452 kts 292°
2026-04-29 09:29 12.01300 79.76383 35774 ft 453 kts 292°
2026-04-29 09:30 12.03875 79.70460 35776 ft 454 kts 292°
2026-04-29 09:30 12.06418 79.64608 35787 ft 454 kts 292°
2026-04-29 09:31 12.08988 79.58719 35788 ft 454 kts 293°
2026-04-29 09:31 12.11639 79.52866 35780 ft 454 kts 293°
2026-04-29 09:32 12.14317 79.47023 35777 ft 454 kts 294°
2026-04-29 09:32 12.16992 79.41172 35777 ft 454 kts 294°
2026-04-29 09:33 12.19654 79.35329 35776 ft 453 kts 294°
2026-04-29 09:33 12.22304 79.29499 35776 ft 450 kts 294°
2026-04-29 09:34 12.24933 79.23712 35779 ft 448 kts 294°
2026-04-29 09:34 12.27557 79.17934 35780 ft 448 kts 293°
2026-04-29 09:35 12.30181 79.12150 35785 ft 448 kts 293°
2026-04-29 09:35 12.32804 79.06366 35785 ft 448 kts 293°
2026-04-29 09:36 12.35429 79.00575 35788 ft 450 kts 294°
2026-04-29 09:36 12.38059 78.94768 35788 ft 450 kts 294°
2026-04-29 09:37 12.40690 78.88955 35792 ft 450 kts 294°
2026-04-29 09:37 12.43319 78.83142 35792 ft 450 kts 293°
2026-04-29 09:38 12.45950 78.77322 35789 ft 450 kts 293°
2026-04-29 09:38 12.48575 78.71509 35792 ft 451 kts 293°
2026-04-29 09:39 12.51202 78.65689 35792 ft 450 kts 294°
2026-04-29 09:39 12.53826 78.59873 35814 ft 450 kts 293°
2026-04-29 09:40 12.56442 78.54073 35809 ft 448 kts 293°
2026-04-29 09:40 12.59047 78.48287 35810 ft 447 kts 293°
2026-04-29 09:41 12.61211 78.43480 35807 ft 448 kts 293°
2026-04-29 09:41 12.64238 78.36750 35823 ft 448 kts 293°
2026-04-29 09:42 12.66842 78.30958 35838 ft 448 kts 293°
2026-04-29 09:42 12.69440 78.25173 35837 ft 447 kts 293°
2026-04-29 09:43 12.71619 78.20319 35857 ft 447 kts 293°
2026-04-29 09:43 12.74217 78.14530 35856 ft 447 kts 293°
2026-04-29 09:44 12.76814 78.08736 35876 ft 448 kts 293°
2026-04-29 09:44 12.79413 78.02936 35892 ft 448 kts 293°
2026-04-29 09:45 12.82008 77.97140 35889 ft 447 kts 293°
2026-04-29 09:45 12.84600 77.91346 35908 ft 448 kts 293°
2026-04-29 09:46 12.87192 77.85551 35908 ft 446 kts 293°
2026-04-29 09:46 12.89771 77.79779 35936 ft 445 kts 293°
2026-04-29 09:47 12.92331 77.74045 35939 ft 445 kts 293°
2026-04-29 09:47 12.94915 77.68278 35938 ft 445 kts 294°
2026-04-29 09:48 12.97784 77.62651 35939 ft 446 kts 297°
2026-04-29 09:48 13.00834 77.57064 35938 ft 446 kts 298°
2026-04-29 09:49 13.03866 77.51496 35941 ft 447 kts 298°
2026-04-29 09:49 13.06869 77.45915 35950 ft 447 kts 297°
2026-04-29 09:50 13.09860 77.40320 35953 ft 447 kts 297°
2026-04-29 09:50 13.12850 77.34720 35944 ft 447 kts 297°
2026-04-29 09:51 13.15836 77.29124 35946 ft 447 kts 297°
2026-04-29 09:51 13.18825 77.23523 35944 ft 447 kts 297°
2026-04-29 09:52 13.21811 77.17923 35927 ft 448 kts 297°
2026-04-29 09:52 13.24799 77.12316 35927 ft 447 kts 297°
2026-04-29 09:53 13.27781 77.06716 35908 ft 448 kts 297°
2026-04-29 09:53 13.30768 77.01103 35914 ft 448 kts 297°
2026-04-29 09:54 13.33751 76.95497 35914 ft 448 kts 297°
2026-04-29 09:54 13.36732 76.89887 35897 ft 447 kts 297°
2026-04-29 09:55 13.39711 76.84279 35901 ft 447 kts 297°
2026-04-29 09:55 13.42683 76.78680 35895 ft 446 kts 297°
2026-04-29 09:56 13.45649 76.73088 35891 ft 446 kts 297°
2026-04-29 09:56 13.48613 76.67496 35892 ft 446 kts 297°
2026-04-29 09:57 13.51577 76.61900 35886 ft 445 kts 297°
2026-04-29 09:57 13.54531 76.56321 35886 ft 444 kts 297°
2026-04-29 09:58 13.57478 76.50751 35885 ft 444 kts 297°
2026-04-29 09:58 13.60429 76.45168 35884 ft 445 kts 297°
2026-04-29 09:59 13.63387 76.39569 35884 ft 446 kts 297°
2026-04-29 09:59 13.66342 76.33973 35887 ft 446 kts 297°
2026-04-29 10:00 13.69296 76.28375 35883 ft 445 kts 297°
2026-04-29 10:00 13.72248 76.22775 35884 ft 445 kts 297°
2026-04-29 10:01 13.75201 76.17170 35886 ft 445 kts 297°
2026-04-29 10:01 13.78152 76.11564 35884 ft 448 kts 298°
2026-04-29 10:02 13.81139 76.05888 35895 ft 453 kts 298°
2026-04-29 10:02 13.84112 76.00237 35887 ft 451 kts 297°
2026-04-29 10:03 13.87089 75.94571 35888 ft 450 kts 297°
2026-04-29 10:03 13.90062 75.88908 35890 ft 450 kts 297°
2026-04-29 10:04 13.93036 75.83241 35890 ft 450 kts 297°
2026-04-29 10:04 13.96007 75.77576 35870 ft 450 kts 297°
2026-04-29 10:05 13.98993 75.71875 35884 ft 455 kts 298°
2026-04-29 10:05 14.02022 75.66093 35885 ft 456 kts 298°
2026-04-29 10:06 14.05028 75.60347 35868 ft 456 kts 298°
2026-04-29 10:06 14.08031 75.54602 35886 ft 456 kts 297°
2026-04-29 10:07 14.11030 75.48852 35878 ft 456 kts 297°
2026-04-29 10:07 14.14026 75.43093 35883 ft 456 kts 298°
2026-04-29 10:08 14.17014 75.37341 35882 ft 454 kts 298°
2026-04-29 10:08 14.19991 75.31611 35877 ft 454 kts 298°
2026-04-29 10:09 14.22949 75.25916 35872 ft 454 kts 298°
2026-04-29 10:09 14.25925 75.20183 35865 ft 454 kts 298°
2026-04-29 10:10 14.28899 75.14448 35863 ft 454 kts 298°
2026-04-29 10:10 14.31875 75.08704 35866 ft 454 kts 298°
2026-04-29 10:11 14.34844 75.02971 35860 ft 453 kts 298°
2026-04-29 10:11 14.37808 74.97242 35856 ft 452 kts 298°
2026-04-29 10:12 14.40767 74.91519 35860 ft 452 kts 298°
2026-04-29 10:12 14.43728 74.85790 35864 ft 452 kts 298°
2026-04-29 10:13 14.46687 74.80058 35862 ft 453 kts 298°
2026-04-29 10:13 14.49664 74.74322 35850 ft 453 kts 298°
2026-04-29 10:14 14.52686 74.68611 35855 ft 454 kts 299°
2026-04-29 10:14 14.55720 74.62897 35840 ft 454 kts 298°
2026-04-29 10:15 14.58750 74.57176 35840 ft 454 kts 298°
2026-04-29 10:15 14.61773 74.51457 35839 ft 454 kts 298°
2026-04-29 10:16 14.64281 74.46706 35828 ft 454 kts 298°
2026-04-29 10:16 14.67808 74.40020 35827 ft 454 kts 298°
2026-04-29 10:17 14.70826 74.34295 35823 ft 454 kts 298°
2026-04-29 10:17 14.73839 74.28575 35818 ft 453 kts 298°
2026-04-29 10:18 14.76852 74.22853 35815 ft 453 kts 298°
2026-04-29 10:18 14.79864 74.17127 35807 ft 453 kts 298°
2026-04-29 10:19 14.82872 74.11402 35812 ft 453 kts 298°
2026-04-29 10:19 14.85878 74.05678 35807 ft 453 kts 298°
2026-04-29 10:20 14.88888 73.99943 35806 ft 453 kts 298°
2026-04-29 10:20 14.91898 73.94206 35807 ft 454 kts 298°
2026-04-29 10:21 14.94911 73.88463 35804 ft 455 kts 298°
2026-04-29 10:21 14.97923 73.82719 35804 ft 454 kts 298°
2026-04-29 10:22 15.00934 73.76971 35802 ft 454 kts 298°
2026-04-29 10:22 15.03939 73.71218 35801 ft 454 kts 298°
2026-04-29 10:23 15.06941 73.65462 35800 ft 455 kts 298°
2026-04-29 10:23 15.09947 73.59696 35801 ft 456 kts 298°
2026-04-29 10:24 15.12448 73.54896 35802 ft 456 kts 298°
2026-04-29 10:24 15.15455 73.49122 35801 ft 456 kts 298°
2026-04-29 10:25 15.18461 73.43344 35804 ft 456 kts 298°
2026-04-29 10:25 15.21466 73.37563 35804 ft 456 kts 298°
2026-04-29 10:26 15.24467 73.31787 35804 ft 456 kts 298°
2026-04-29 10:26 15.27469 73.26002 35804 ft 456 kts 298°
2026-04-29 10:27 15.31974 73.17316 35802 ft 456 kts 298°
2026-04-29 10:28 15.34975 73.11523 35805 ft 456 kts 299°
2026-04-29 10:28 15.37974 73.05730 35801 ft 456 kts 299°